STARLINK-32084, 60347

Orbit data source: Space-Track

STARLINK-32084, 60347 is a payload satellite owned by SpaceX/Seattle (US) in LEO that was launched on Fri, 02 Aug 2024 UTC via an FALCON 9 launch vehicle from the Air Force Eastern Test Range (AFETR). Payload-class satellites include a variety of spacecraft equipped with specific instruments for various scientific and technological missions. These include communications satellites like Starlink; space stations such as the ISS; scientific satellites like the Hubble; Earth observation satellites from companies like Planet Labs, Umbra, and HawkEye 360; GPS; miniature CubeSats for education and research; and military/defense satellites.

Loading next visibility...
Identifier
60347, 2024-136U
Orbit
LEO
Country
Flag of USUS
Related business
Manufacturer
SpaceX/Seattle
Mission
Operational Commercial Communications
Bus & Motor
STARLINK V2M, Unknown motor
Mass
730 kg wet, ~700 kg dry
Launch date (UTC)
2024-08-02 (2 years ago)
Launch vehicle
FALCON 9
Launch site
Air Force Eastern Test Range (AFETR)
Object type
Payload
Rocket body
Debris
Shape & HBR
Box + 2 Pan, 17.7 m
Radar Cross Section
33.884 m², Large (>1 m²)

Expand to show TLE details & history
Last TLE update: 7 hours ago

TLE from 7 hours ago
0 STARLINK-32084
1 60347U 24136U   26125.09844197  .00000973  00000-0  44978-4 0  9999
2 60347  53.1577 173.4597 0001573  78.5510 281.5667 15.30194356 98300
Epoch: 2026-05-05T02:21Z
TLE epoch observation values (Epoch: 2026-05-05T02:21:45.386Z)
Latitude
-0.00003°
Longitude
-84.9576°
Altitude
475.915 km
Speed
7.629 km/s
True Right ascension
11h 33m 50s
True Declination
0° 00' 00"
Sunlit
Object was in full shadow at epoch
Visualization orbit readout
Latitude
Unknown
Longitude
Unknown
Altitude
Unknown
Speed
Unknown
Apparent Right ascension
Unknown
Apparent Declination
Unknown
Sunlit
N/A
Visualization observer readout
Local Sidereal Time
17:02:56
Azimuth
Unknown
Elevation
Unknown
Doppler factor
Unknown
Orbital elements
Apogee altitude
476.567 km
Perigee altitude
474.411 km
Semi-major axis
6,853.626 km
Eccentricity
0.00016
Inclination
53.1577°
RAAN
173.4597°
Arg. of periapsis
78.551°
True anomaly
281.54904°
Mean anomaly
281.5667°
Eccentric anomaly
281.55787°
Mean motion
3.82527 °/min
Orbital period
94.11 mins
BSTAR
0.000044978
Loading maneuver chart data...
Computing Atmospheric mass density...
Loading historical data...
Loading historical data...
Loading historical data...
Loading historical data...
Loading historical data...
Loading historical data...
Loading historical data...

Documentation

Showing up to 5 results
|